Regional Weather Roundup
Issued by NWS New Orleans/Baton Rouge, LA

Home | Current Version | Previous Version | Graphics & Text | Print | Product List | Glossary Off
Versions: 1 2 3 4 5 6 7 8 9 10 11 12 13 14 15 16 17 18 19 20 21 22 23 24 25 26 27 28 29 30 31 32 33 34 35 36 37 38 39 40 41 42 43 44 45 46 47 48 49 50

380
ASUS44 KLIX 260210
RWRLIX
NEW ORLEANS REGIONAL WEATHER ROUNDUP
NATIONAL WEATHER SERVICE NEW ORLEANS LA
800 PM CST SUN JAN 25 2015

NOTE: "FAIR" INDICATES FEW OR NO CLOUDS BELOW 12,000 FEET WITH NO
      SIGNIFICANT WEATHER AND/OR OBSTRUCTIONS TO VISIBILITY.
      SKY/WX - SKY CONDITION AND SIGNIFICANT WEATHER.
      TMP - AIR TEMPERATURE.     DP    - DEWPOINT TEMPERATURE.
      RH  - RELATIVE HUMIDITY.   PRES  - PRESSURE.
      HI  - HEAT INDEX.          WCI   - WIND CHILL INDEX.

*  THESE STATIONS ARE NOT NWS OR FAA STATIONS AND ARE NOT UNDER
   NWS QUALITY CONTROL.

LAZ038-040-048-061>063-065>067-069-260300-
SOUTHEAST LOUISIANA

CITY           SKY/WX    TMP DP  RH WIND       PRES   REMARKS
N.O. AUDUBON     N/A     58  45  62 MISG        N/A
N.O. INTL ARPT CLEAR     57  43  59 W15       29.92R
N.O. LAKEFRONT CLEAR     58  45  62 W20       29.91S
N.O. DOWNTOWN*   N/A     57  39  51 SW5       29.93R
SLIDELL        CLEAR     58  41  53 VRB7      29.90R
BATON ROUGE    CLEAR     53  43  68 W6        29.93R
BOOTHVILLE     CLEAR     61  48  62 W21       29.94R
BELLE CHASSE   CLEAR     55  43  63 W8        29.92R
BOGALUSA*        N/A     56  40  56 NW6       29.90R
GALLIANO*      CLEAR     58  49  72 MISG      29.96R
NEW ROADS*       N/A     56  41  56 W8        29.94R
GONZALES*        N/A     56  45  64 SW5       29.94R
HAMMOND*       CLEAR     57  39  51 W8        29.92R
HOUMA*         CLEAR     54  48  82 W8        29.95R
PORT FOURCHON* CLEAR     59  50  72 W16G26    30.00R

$$

MSZ070-080>082-260300-
SOUTHERN MISSISSIPPI

CITY           SKY/WX    TMP DP  RH WIND       PRES   REMARKS
MCCOMB         PTCLDY    56  38  50 NW6       29.89R
GULFPORT       CLEAR     56  41  57 W7        29.87S
BILOXI         CLEAR     56  41  57 W7        29.87R
PASCAGOULA     CLEAR     54  44  69 SW3       29.87S
STENNIS ARPT*  CLEAR     55  36  47 W6        29.89R

$$

COASTAL OBSERVATIONS
LAKE AND NEARSHORE STATIONS

STATION/POSITION TIME  TEMP    WIND        PRES    WAVE
                       AIR SEA DIR/SP/G            HT/PER
                 (UTC) (F)     (DEG/KT/KT) (MB)    (FT/S)
PASCAGOULA       0200   56     260/ 13/ 17 1011.0
WAVELAND YACHT   0200   59     260/  9/ 16 1010.9
GRAND ISLE       0200   60 59  270/ 23/ 27 1014.5
SOUTHWEST PASS   0200   61 47  250/ 31/ 35 1013.9
NEW CANAL        0200   58 52  260/ 13/ 17 1013.2
SHELL BEACH      0200   56 54  250/ 13/ 16 1012.7

OFFSHORE STATIONS

STATION/POSITION TIME  TEMP    WIND        PRES    WAVE
                       AIR SEA DIR/SP/G            HT/PER
                 (UTC) (F)     (DEG/KT/KT) (MB)    (FT/S)
64 S DAUPHIN ISL 0056   65 71  260/ 29/ 35 1012.8    8/ 7

$$




USA.gov is the U.S. government's official web portal to all federal, state and local government web resources and services.